SCP
0 0 0 0 0 0 0 0 0 0 0 0 0 0 0 0 0 0 0 0 0 0 0 0 0 0 0 0 0 0 0 0 0 0 0 0 0 0
0 0 0 0 0 0 0 0 0 0 0 0 0 0 0 0 0 0 0 0 0 0 0 0 0 0 0 0 0 0 0 0 0 0 0 0 0 0
0 0 0 0 0 0 0 0 0 0 0 0 0 0 0 0 0 0 0 0 0 0 0 0 0 0 0 0 0 0 0 0 0 0 0 0 0 0
0 0 0 0 0 0 0 0 0 0 0 0 0 0 0 0 0 0 0 0 0 0 0 0 0 0 0 0 0 0 0 0 0 0 0 0 0 0
0 0 0 0 0 0 0 0 0 0 0 0 0 0 0 0 0 0 0 0 0 0 0 0 0 0 0 0 0 0 0 0 0 0 0 0 0 0
0 0 0 0 0 0 0 0 0 0 0 0 0 0 0 0 0 0 0 0 0 0 0 0 0 0 0 0 0 0 0 0 0 0 0 0 0 0
0 0 0 0 0 0 0 0 0 0 0 0 0 0 0 0 0 0 0 0 0 0 0 0 0 0 0 0 0 0 0 0 0 0 0 0 0 0
0 0 0 0 0 0 0 0 0 0 0 0 0 0 0 0 0 0 0 0 0 0 0 0 0 0 0 0 0 0 0 0 0 0 0 0 0 0
0 0 0 0 0 0 0 0 0 0 0 0 0 0 0 0 0 0 0 0 0 0 0 0 0 0 0 0 0 0 0 0 0 0 0 0 0 0
0 0 0 0 0 0 0 0 0 0 0 0 0 0 0 0 0 0 0 0 0 0 0 0 0 0 0 0 0 0 0 0 0 0 0 0 0 0
0 0 0 0 0 0 0 0 0 0 0 0 0 0 0 0 0 0 0 0 0 0 0 0 0 0 0 0 0 0 0 0 0 0 0 0 0 0
0 0 0 0 0 0 0 0 0 0 0 0 0 0 0 0 0 0 0 0 0 0 0 0 0 0 0 0 0 0 0 0 0 0 0 0 0 0
0 0 0 0 0 0 0 0 0 0 0 0 0 0 0 0 0 0 0 0 0 0 0 0 0 0 0 0 0 0 0 0 0 0 0 0 0 0
0 0 0 0 0 0 0 0 0 0 0 0 0 0 0 0 0 0 0 0 0 0 0 0 0 0 0 0 0 0 0 0 0 0 0 0 0 0
0 0 0 0 0 0 0 0 0 0 0 0 0 0 0 0 0 0 0 0 0 0 0 0 0 0 0 0 0 0 0 0 0 0 0 0 0 0
0 0 0 0 0 0 0 0 0 0 0 0 0 0 0 0 0 0 0 0 0 0 0 0 0 0 0 0 0 0 0 0 0 0 0 0 0 0
0 0 0 0 0 0 0 0 0 0 0 0 0 0 0 0 0 0 0 0 0 0 0 0 0 0 0 0 0 0 0 0 0 0 0 0 0 0
0 0 0 0 0 0 0 0 0 0 0 0 0 0 0 0 0 0 0 0 0 0 0 0 0 0 0 0 0 0 0 0 0 0 0 0 0 0
0 0 0 0 0 0 0 0 0 0 0 0 0 0 0 0 0 0 0 0 0 0 0 0 0 0 0 0 0 0 0 0 0 0 0 0 0 0
0 0 0 0 0 0 0 0 0 0 0 0 0 0 0 0 0 0 0 0 0 0 0 0 0 0 0 0 0 0 0 0 0 0 0 0 0 0
0 0 0 0 0 0 0 0 0 0 0 0 0 0 0 0 0 0 0 0 0 0 0 0 0 0 0 0 0 0 0 0 0 0 0 0 0 0
0 0 0 0 0 0 0 0 0 0 0 0 0 0 0 0 0 0 0 0 0 0 0 0 0 0 0 0 0 0 0 0 0 0 0 0 0 0
0 0 0 0 0 0 0 0 0 0 0 0 0 0 0 0 0 0 0 0 0 0 0 0 0 0 0 0 0 0 0 0 0 0 0 0 0 0
Wind_Speed
2 3 2 1 2 2 2 3 5 5 6 4 2 2 2 2 5 3 3 7 10 11 13 14 15 15 16 16 17 18 18 18 19 19 19 19 19 20
3 3 4 3 3 3 2 2 1 3 3 3 2 2 3 4 7 4 4 9 11 12 14 15 16 16 17 17 17 18 19 19 19 19 20 20 20 20
6 6 6 6 4 4 3 3 2 2 3 2 2 2 3 4 3 3 3 4 5 12 15 16 16 16 17 18 18 18 19 19 19 19 20 20 20 21
7 7 7 6 6 5 4 4 4 3 3 3 2 2 3 4 4 4 4 4 4 11 15 16 16 17 17 18 18 18 18 19 19 20 20 21 21 21
8 7 6 7 7 5 5 4 3 3 3 3 2 1 1 2 3 3 4 4 5 8 12 14 15 16 16 17 18 18 19 19 19 19 20 20 21 21
9 8 7 7 6 5 4 4 3 3 3 2 1 1 1 2 1 2 3 2 3 5 8 11 13 15 16 17 18 19 19 19 19 19 19 20 20 21
9 8 8 9 8 6 4 3 2 2 1 1 1 0 1 1 1 1 2 2 4 4 3 4 5 5 8 14 17 18 19 18 18 19 20 20 21 21
7 6 6 7 8 8 7 5 3 2 1 0 0 1 2 1 1 0 1 2 3 2 3 6 5 6 6 6 14 19 19 19 19 20 20 20 21 21
5 4 4 5 6 4 4 4 3 3 2 0 1 2 2 1 1 1 2 3 5 4 5 8 5 7 6 9 17 19 20 20 20 20 20 20 21 21
5 4 4 3 3 3 3 3 2 2 2 1 1 2 2 2 2 3 4 4 5 4 4 6 5 5 7 6 15 19 19 18 19 19 20 21 21 21
3 3 4 4 6 6 4 3 3 3 4 5 6 7 10 10 8 3 2 3 5 4 2 3 3 4 5 6 8 14 15 17 20 21 21 21 21 20
2 2 3 4 7 7 3 3 3 3 3 5 6 7 6 7 9 3 3 3 3 4 2 2 3 4 6 4 3 4 7 15 20 20 21 21 21 12
2 2 2 7 8 8 6 3 5 5 3 4 4 4 4 3 3 2 1 3 4 5 3 2 3 2 4 7 5 4 5 6 7 10 16 20 20 16
2 2 3 8 9 9 5 6 8 7 2 3 3 3 3 3 3 3 4 5 6 8 7 5 6 5 7 9 9 6 5 6 7 8 7 13 15 18
2 6 8 9 8 6 7 8 6 2 2 2 3 3 3 3 3 4 5 6 7 8 8 9 9 8 8 9 9 9 9 8 6 5 6 7 8 8
3 6 10 9 6 6 6 4 2 2 2 2 3 3 3 4 4 4 5 5 6 6 6 8 9 10 10 10 11 12 9 8 7 8 9 10 8 8
4 3 3 3 3 3 3 3 3 3 3 2 3 4 5 5 5 5 5 5 6 8 8 5 6 8 11 11 11 12 11 10 10 10 10 11 9 8
5 3 3 3 3 3 3 4 3 4 3 3 4 5 6 6 7 6 5 6 7 8 8 7 6 7 6 9 15 13 10 10 9 8 9 12 13 8
2 3 3 3 3 3 3 4 4 4 4 4 5 5 6 6 6 7 7 7 8 8 8 7 6 7 10 11 7 10 9 9 9 10 9 10 13 11
2 3 3 3 3 3 4 4 5 5 5 5 6 6 6 6 7 7 7 8 9 9 9 7 6 7 9 11 11 9 11 11 10 11 11 10 11 15
3 3 3 3 3 4 4 5 5 6 6 6 6 7 6 6 7 7 8 12 11 9 10 9 8 13 10 9 11 10 8 11 14 12 12 12 13 11
4 4 4 4 4 4 5 5 6 6 7 6 7 6 6 7 8 9 9 9 9 9 11 11 10 9 8 10 13 14 14 11 11 18 20 18 12 10
4 4 4 4 4 4 5 6 7 7 7 7 7 7 7 7 8 8 9 10 10 11 12 11 10 8 9 10 12 13 15 14 11 10 9 14 20 24
Wind_Direction
227 197 177 143 133 135 135 160 170 185 205 189 179 173 147 137 183 174 197 238 253 266 276 281 285 287 288 290 291 292 291 291 289 288 286 285 284 284
58 84 86 85 87 87 104 103 138 167 169 153 159 156 171 180 198 196 217 248 264 274 279 281 283 284 286 288 289 289 289 288 287 286 286 286 285 285
70 80 80 82 84 75 75 82 74 95 134 118 121 141 169 181 198 211 227 243 262 274 279 281 283 285 287 288 288 287 286 285 285 286 286 286 287 287
78 84 86 86 82 77 76 75 72 58 103 124 123 144 181 190 200 223 242 250 250 273 279 283 285 286 287 286 285 284 284 284 284 284 285 285 285 285
70 76 80 86 82 78 77 78 73 67 75 110 117 144 174 202 211 237 250 258 264 275 284 289 290 290 288 287 287 286 285 284 283 283 282 282 283 283
64 66 68 74 81 80 78 79 81 78 79 90 102 134 195 218 200 238 270 269 277 287 289 289 290 292 293 293 292 291 288 284 282 281 281 281 281 281
65 64 67 73 76 75 81 75 72 71 73 87 110 172 245 249 243 240 267 297 294 278 281 288 295 288 288 289 291 289 286 285 284 284 283 282 281 280
70 65 68 62 60 61 65 62 54 54 53 43 295 258 269 273 281 319 313 321 303 304 325 295 284 278 273 264 281 288 289 291 290 288 286 285 283 282
62 55 53 58 54 35 25 25 10 350 332 262 260 273 283 274 297 303 279 268 264 273 293 285 269 272 270 281 292 296 297 296 294 293 291 289 286 284
59 51 45 39 40 24 9 1 334 316 300 287 239 267 278 264 238 246 254 270 271 267 258 275 279 273 283 280 291 292 294 296 298 298 296 293 290 286
64 58 44 24 10 10 10 349 335 323 319 315 296 291 288 286 277 264 273 289 294 290 251 257 286 300 287 279 284 292 296 302 304 302 300 298 296 293
28 48 51 22 358 357 3 347 329 323 339 331 316 307 300 291 290 252 210 235 273 292 286 301 297 327 308 285 274 284 293 296 299 301 302 302 301 298
14 14 7 359 348 340 340 330 308 317 318 307 301 302 307 305 308 304 240 215 238 257 273 309 286 276 271 295 294 268 270 283 293 296 299 300 298 295
3 0 340 340 336 333 330 317 321 330 321 305 304 304 305 305 306 308 300 283 260 265 273 274 271 275 283 288 288 292 289 277 280 287 284 293 294 293
340 333 329 328 330 330 323 323 331 328 314 311 305 295 290 290 295 295 286 273 264 261 264 260 259 265 264 269 277 286 299 296 277 272 280 283 280 279
345 327 325 322 321 308 313 321 309 276 294 285 291 294 302 302 296 290 291 293 288 282 260 250 248 251 260 261 268 278 278 279 287 284 283 281 272 264
327 322 317 325 335 333 329 322 318 320 321 309 306 308 307 304 300 297 288 289 283 290 295 275 250 247 250 259 269 270 273 274 273 279 284 286 277 263
334 326 321 330 329 327 325 324 324 321 315 309 305 301 299 299 299 295 287 286 286 287 288 290 290 287 272 253 240 259 266 270 274 273 274 285 287 275
320 307 308 310 308 309 308 306 306 306 304 298 292 291 292 292 292 293 293 289 287 286 285 284 283 287 294 297 268 229 250 276 282 282 277 275 282 285
286 281 285 290 294 296 298 300 300 302 300 296 293 290 288 288 287 287 287 287 288 288 288 281 272 270 277 287 290 278 253 261 273 281 284 279 276 279
287 282 278 279 282 287 290 291 292 293 292 291 287 284 282 281 282 282 284 288 290 288 288 286 277 282 280 278 280 281 271 250 254 268 282 288 291 290
272 274 275 276 276 279 282 284 285 285 286 283 282 280 279 277 279 282 283 285 285 284 284 285 283 282 275 277 282 288 293 289 269 266 265 266 276 283
267 269 271 275 274 275 277 279 280 281 279 279 278 278 278 278 278 280 282 282 284 285 287 289 288 280 275 274 279 285 289 293 294 291 277 267 266 266